| time (UTC) | temp F | wind direction | speed knots | gust knots | rain 1hr in | rain 24hr in | rain mn in | humidity % | barometer mb |
| 20260504081546 | 37 | 0 | 0.0 | 0.0 | 0.00 | 0.15 | 0.00 | 94 | 1004.4 |
| 20260504044605 | 42 | 0 | 0.0 | 0.0 | 0.00 | 0.15 | 0.15 | 93 | 1006.0 |
| 20260504043052 | 43 | 0 | 0.0 | 0.0 | 0.00 | 0.15 | 0.15 | 93 | 1006.1 |
| 20260504041548 | 43 | 0 | 0.0 | 0.0 | 0.00 | 0.15 | 0.15 | 93 | 1006.0 |
| 20260504040104 | 44 | 0 | 0.0 | 0.0 | 0.00 | 0.15 | 0.15 | 92 | 1006.0 |
| 20260504034610 | 44 | 0 | 0.0 | 0.0 | 0.00 | 0.15 | 0.15 | 92 | 1006.0 |
| 20260504033048 | 44 | 0 | 0.0 | 0.0 | 0.00 | 0.15 | 0.15 | 92 | 1006.1 |
| 20260504031546 | 45 | 0 | 0.0 | 0.0 | 0.00 | 0.15 | 0.15 | 91 | 1006.1 |
| 20260504030104 | 46 | 0 | 0.0 | 0.0 | 0.00 | 0.15 | 0.15 | 91 | 1006.1 |
| 20260504024554 | 47 | 0 | 0.0 | 0.0 | 0.00 | 0.15 | 0.15 | 90 | 1006.0 |
| 20260504023049 | 47 | 0 | 0.0 | 0.0 | 0.00 | 0.15 | 0.15 | 90 | 1005.9 |
| 20260504021550 | 49 | 0 | 0.0 | 0.0 | 0.00 | 0.15 | 0.15 | 89 | 1005.9 |
| 20260504020045 | 50 | 0 | 0.0 | 0.0 | 0.00 | 0.15 | 0.15 | 88 | 1005.7 |
| 20260504014545 | 52 | 0 | 0.0 | 0.9 | 0.00 | 0.15 | 0.15 | 85 | 1005.4 |
| 20260504013050 | 55 | 0 | 0.0 | 1.7 | 0.00 | 0.15 | 0.15 | 80 | 1005.2 |
| 20260504011547 | 58 | 0 | 0.0 | 1.7 | 0.00 | 0.15 | 0.15 | 76 | 1005.0 |
| 20260504010047 | 61 | 0 | 0.0 | 0.9 | 0.00 | 0.15 | 0.15 | 71 | 1004.8 |
| 20260504004547 | 64 | 0 | 0.0 | 0.9 | 0.00 | 0.15 | 0.15 | 66 | 1004.6 |
| 20260504003044 | 67 | 108 | 0.0 | 1.7 | 0.00 | 0.15 | 0.15 | 57 | 1004.5 |
| 20260504001558 | 69 | 49 | 0.9 | 5.2 | 0.00 | 0.15 | 0.15 | 51 | 1004.6 |
| 20260504000057 | 72 | 128 | 0.9 | 6.1 | 0.00 | 0.15 | 0.15 | 39 | 1004.6 |
| 20260503234547 | 73 | 333 | 1.7 | 5.2 | 0.00 | 0.15 | 0.15 | 41 | 1004.6 |
| 20260503233046 | 73 | 180 | 2.6 | 7.0 | 0.00 | 0.15 | 0.15 | 41 | 1004.6 |
| 20260503231553 | 73 | 153 | 1.7 | 7.0 | 0.00 | 0.15 | 0.15 | 43 | 1004.8 |
| 20260503230045 | 73 | 328 | 0.9 | 6.1 | 0.00 | 0.15 | 0.15 | 42 | 1004.7 |
| 20260503224548 | 73 | 147 | 0.9 | 5.2 | 0.00 | 0.15 | 0.15 | 44 | 1004.8 |
| 20260503223048 | 73 | 245 | 1.7 | 7.0 | 0.00 | 0.15 | 0.15 | 43 | 1005.1 |
| 20260503221548 | 72 | 235 | 1.7 | 8.7 | 0.00 | 0.15 | 0.15 | 44 | 1005.1 |
| 20260503220049 | 72 | 168 | 2.6 | 7.0 | 0.00 | 0.15 | 0.15 | 47 | 1005.2 |
| 20260503214543 | 72 | 170 | 2.6 | 6.1 | 0.00 | 0.15 | 0.15 | 44 | 1005.2 |
| 20260503213048 | 71 | 59 | 4.3 | 9.6 | 0.00 | 0.15 | 0.15 | 44 | 1005.3 |
| 20260503211554 | 72 | 327 | 2.6 | 7.8 | 0.00 | 0.15 | 0.15 | 47 | 1005.5 |
| 20260503210047 | 71 | 348 | 3.5 | 8.7 | 0.00 | 0.15 | 0.15 | 46 | 1005.7 |
| 20260503204557 | 71 | 356 | 1.7 | 7.8 | 0.00 | 0.15 | 0.15 | 47 | 1005.8 |
| 20260503203051 | 71 | 267 | 2.6 | 8.7 | 0.00 | 0.15 | 0.15 | 48 | 1006.0 |
| 20260503201545 | 70 | 268 | 3.5 | 8.7 | 0.00 | 0.15 | 0.15 | 47 | 1006.2 |
| 20260503200052 | 69 | 94 | 3.5 | 10.4 | 0.00 | 0.15 | 0.15 | 51 | 1006.5 |
| 20260503194548 | 69 | 142 | 3.5 | 9.6 | 0.00 | 0.15 | 0.15 | 52 | 1006.6 |
| 20260503193100 | 68 | 123 | 6.1 | 13.9 | 0.00 | 0.15 | 0.15 | 48 | 1007.0 |
| 20260503191550 | 68 | 176 | 1.7 | 8.7 | 0.00 | 0.15 | 0.15 | 52 | 1007.3 |
| 20260503190105 | 66 | 232 | 6.1 | 12.2 | 0.00 | 0.15 | 0.15 | 51 | 1007.6 |
| 20260503184552 | 67 | 188 | 3.5 | 10.4 | 0.00 | 0.15 | 0.15 | 52 | 1007.7 |
| 20260503183058 | 65 | 275 | 4.3 | 11.3 | 0.00 | 0.15 | 0.15 | 53 | 1007.7 |
| 20260503181548 | 65 | 189 | 3.5 | 8.7 | 0.00 | 0.15 | 0.15 | 56 | 1007.9 |
| 20260503180055 | 64 | 304 | 4.3 | 15.6 | 0.00 | 0.15 | 0.15 | 57 | 1008.1 |
| 20260503174546 | 63 | 164 | 4.3 | 13.9 | 0.00 | 0.15 | 0.15 | 55 | 1008.5 |
| 20260503173108 | 63 | 169 | 4.3 | 13.0 | 0.00 | 0.15 | 0.15 | 53 | 1008.7 |
| 20260503171552 | 63 | 222 | 4.3 | 10.4 | 0.00 | 0.15 | 0.15 | 54 | 1008.6 |
| 20260503140104 | 46 | 0 | 0.0 | 0.0 | 0.04 | 0.15 | 0.15 | 92 | 1012.0 |